• MPC Preparation (Info)

  • MPEC 2016-O179: 2015 FO345

    The following Minor Planet Electronic Circular may be linked-to from your own Web pages, but must not otherwise be redistributed electronically.

    A form allowing access to any MPEC is at the bottom of this page.


    Read MPEC 2016-O178 Read MPEC 2016-O180


    M.P.E.C. 2016-O179                               Issued 2016 July 17, 10:12 UT
    
         The Minor Planet Electronic Circulars contain information on unusual
             minor planets and routine data on comets.  They are published
        on behalf of Division F of the International Astronomical Union by the
              Minor Planet Center, Smithsonian Astrophysical Observatory,
                              Cambridge, MA 02138, U.S.A.
    
                 Prepared using the Tamkin Foundation Computer Network
    
                                  MPC@CFA.HARVARD.EDU
                URL https://www.minorplanetcenter.net/    ISSN 1523-6714
    
                                      2015 FO345
    
    Observations:
         K15FY5O  C2011 04 30.39442 14 06 34.123+05 30 05.26         22.3 wLEO179F51
         K15FY5O  C2011 04 30.40799 14 06 34.061+05 30 05.52         22.5 wLEO179F51
         K15FY5O  C2011 04 30.42304 14 06 33.969+05 30 06.08         22.5 wLEO179F51
         K15FY5O  C2011 04 30.43666 14 06 33.900+05 30 06.29         22.6 wLEO179F51
         K15FY5O  C2014 04 05.43778 14 30 43.049+04 20 41.93         22.4 wLEO179F51
         K15FY5O  C2014 04 05.45004 14 30 42.999+04 20 42.45         22.7 wLEO179F51
         K15FY5O  C2014 04 05.46230 14 30 42.921+04 20 43.01         22.5 wLEO179F51
         K15FY5O  C2014 05 25.38567 14 26 30.049+04 43 04.67         22.5 wLEO179F51
         K15FY5O  C2014 05 25.39870 14 26 29.977+04 43 04.63         22.5 wLEO179F51
         K15FY5O  C2014 05 25.41173 14 26 29.932+04 43 04.86         22.6 wLEO179F51
         K15FY5O  C2014 05 25.42484 14 26 29.854+04 43 05.03         22.8 wLEO179F51
         K15FY5O* C2015 03 22.50733 14 38 58.858+03 52 10.47         22.7 wLEO179F51
         K15FY5O  C2015 03 22.52097 14 38 58.791+03 52 10.69         22.7 wLEO179F51
         K15FY5O  C2015 03 22.53472 14 38 58.756+03 52 11.87         22.7 wLEO179F51
         K15FY5O  C2015 03 22.54844 14 38 58.674+03 52 11.82         22.5 wLEO179F51
         K15FY5O  C2015 04 23.49838 14 36 31.874+04 12 20.10         22.2 wLEO179F51
         K15FY5O  C2015 04 23.51264 14 36 31.810+04 12 20.37         22.5 wLEO179F51
         K15FY5O  C2015 04 23.52683 14 36 31.725+04 12 20.88         22.6 wLEO179F51
         K15FY5O  C2015 04 23.54108 14 36 31.659+04 12 21.59         22.3 wLEO179F51
    
    Observer details:
    F51 Pan-STARRS 1, Haleakala.  Observers B. Gibson, T. Goggia, N. Primak,
        A. Schultz, M. Willman.  Measurers K. Chambers, S. Chastel, Y.-T. Chen,
        L. Denneau, H. Flewelling, M. Holman, M. Huber, R. Jedicke, M. Lackner,
        E. Lilly, H.-W. Lin, E. Magnier, M. Micheli, M. Payne, P. Veres,
        R. Wainscoat, C. Waters, R. Weryk.  1.8-m Ritchey-Chretien + CCD.
    
    Orbital elements:
    2015 FO345
    Epoch 2016 July 31.0 TT = JDT 2457600.5                 MPC
    M  25.11340              (2000.0)            P               Q
    n   0.00382823     Peri.   33.31304     -0.97908830     +0.12860342
    a  40.4703837      Node   152.72753     -0.14436682     -0.98514729
    e   0.1366780      Incl.   20.12097     +0.14333291     -0.11378041
    P 257              H    6.9           G   0.15           U   3
    Residuals in seconds of arc
    110430 F51  0.0   0.0     140525 F51  0.1+  0.2+    150322 F51  0.3-  0.3-
    110430 F51  0.1+  0.1-    140525 F51  0.1-  0.0     150423 F51  0.1-  0.1+
    110430 F51  0.1-  0.1+    140525 F51  0.2+  0.1+    150423 F51  0.1+  0.1-
    110430 F51  0.0   0.1-    140525 F51  0.0   0.1+    150423 F51  0.1-  0.1-
    140405 F51  0.0   0.1-    150322 F51  0.2+  0.0     150423 F51  0.1+  0.2+
    140405 F51  0.1+  0.1-    150322 F51  0.1-  0.3-
    140405 F51  0.2-  0.0     150322 F51  0.2+  0.3+
    
    Ephemeris:
    2015 FO345               a,e,i = 40.47, 0.14, 20                 q = 34.939
    Date    TT    R. A. (2000) Decl.     Delta      r     Elong.  Phase     V
    2016 06 17    14 39 25.3 +04 06 32  34.9901 35.6188   127.6     1.3    22.6
    ...
    2016 07 02    14 38 43.2 +04 03 50  35.1933 35.6218   114.2     1.5    22.6
    ...
    2016 07 10    14 38 29.0 +04 01 19  35.3134 35.6234   107.0     1.6    22.6
    ...
    2016 07 16    14 38 22.4 +03 58 59  35.4071 35.6246   101.6     1.6    22.6
    2016 07 17    14 38 21.7 +03 58 33  35.4230 35.6248   100.7     1.6    22.6
    2016 07 18    14 38 21.1 +03 58 07  35.4389 35.6250    99.7     1.6    22.6
    ...
    2016 07 24    14 38 19.4 +03 55 17  35.5351 35.6263    94.3     1.6    22.6
    ...
    2016 08 01    14 38 23.0 +03 51 01  35.6646 35.6279    87.1     1.6    22.6
    ...
    2016 08 16    14 38 47.8 +03 41 41  35.9032 35.6309    73.6     1.6    22.6
    
    A. U. Tomatic                (C) Copyright 2016 MPC           M.P.E.C. 2016-O179
    

    Read MPEC 2016-O178 Read MPEC 2016-O180


    MPEC number:

    Enter an MPEC number in one of the following forms:

    • 1997-B01 (the full form)
    • J97B01 (the packed version of the full form)
    • B01 (the abbreviated form)